GPS BIIRM-1 (PRN 17)

Last updated on Wed Jun 24 2026 00:03:27 GMT+0000 (Coordinated Universal Time)

1 28874U 05038A 26173.82916896 -.00000073 00000+0 00000+0 0 9992 2 28874 54.8732 272.9496 0127936 296.2077 59.2231 2.00565337151943
UTC large
Height (km)
Speed (km/s)
/
Latitude / Longitude
Inclination (degrees)
Orbital Period (minutes)
Azimuth
Elevation
Range (km)
Doppler Factor

Next 0 passes for location: London (51.5072 / 0.1276)

No passes found over London.
GPS BIIRM-1 (PRN 17)